STARLINK-1028 (44733 NORAD) Tracking and Keplerian Element Data

This shows tracking and keplerian element data for the satellite.

Feedback or suggestion? Click here.




ElementValue
Catalog44733
NameSTARLINK-1028
Epoch Orbit1066
Epoch Day18.25002315
Epoch Year2020
RAAN194.1846
Inclination53.007
Eccentricity0.0002706
Argument of Perigee37.0097
Mean Anonmoly0.7491
Mean Motion15.73168459
Decay Rate0.00207415
L11 44733U 19074W 20018.25002315 .00207415 00000-0 14476-2 0 9994
L22 44733 53.0070 194.1846 0002706 37.0097 0.7491 15.73168459 10665

Live tracking and technical data element details for STARLINK-1028 (NORAD 44733). STARLINK-1028 can be tracked NOW for your location showing map with azimuth and elevation plus other details from your city location.

Track the satellite on the map from your city or location and see movement details for azimuth, elevation, latitude, longitude, range, height, and movement on the map or in text.







IsCatalogInMostPopularTable: catalog: 44733, numindb: 10
Update: records affected: 1



GetName: 44733 STARLINK-1028

Hit Count: updated at: Mon, 20 Jan 2020 03:44:36 GMT